Wind_Speed
12 12 12 13 13 14 16 16 16 16 15 12 8 8 9 10 9 7 5 5 5 6 6 7 6 5 4 3 3 2 1 0 1 2 3 4 5 5 6 7 7 7 7 7 7 7 7 7 7
14 14 14 14 15 17 19 19 19 18 18 15 11 9 9 10 9 7 6 5 6 6 7 8 7 6 4 4 3 2 2 2 2 3 4 5 6 7 7 8 8 8 8 8 8 8 7 7 6
16 16 16 16 17 18 20 20 21 20 19 17 13 11 10 8 8 9 7 6 7 8 8 8 7 5 4 4 3 3 3 4 4 5 6 6 7 8 9 10 10 9 9 9 9 8 8 8 7
18 17 18 18 19 20 21 21 22 21 20 17 14 12 9 8 8 10 8 8 8 9 9 8 7 5 5 4 4 4 4 5 5 6 7 8 9 10 11 11 12 12 11 11 10 10 10 9 8
18 19 20 20 21 22 22 22 22 21 20 19 15 13 10 8 9 11 11 10 10 11 10 8 6 5 5 4 4 5 6 7 7 8 9 10 11 12 13 13 13 13 13 13 13 12 11 10 10
19 20 21 22 23 24 24 23 22 21 19 17 14 10 6 6 10 12 13 12 12 11 10 8 6 5 5 5 6 6 7 8 10 11 12 12 14 14 15 15 15 15 15 15 14 14 13 12 11
20 21 22 23 24 24 24 23 22 21 19 18 15 12 9 8 10 13 14 13 12 11 9 7 6 6 6 7 7 8 9 10 11 12 13 14 14 15 16 16 17 17 17 16 16 16 15 14 13
19 20 21 22 23 23 23 23 22 21 20 18 15 11 9 8 10 13 15 14 13 11 9 7 7 7 7 8 9 10 11 11 12 13 14 14 15 15 16 17 17 17 17 17 17 17 16 15 14
18 17 18 19 20 21 22 22 22 21 20 19 17 14 12 10 11 13 14 14 14 12 10 8 8 7 8 9 9 10 11 12 13 14 14 14 15 15 16 16 16 16 16 17 18 18 18 17 16
15 15 15 16 17 18 19 20 20 19 19 18 17 15 14 12 13 13 15 15 15 13 10 9 8 8 8 9 10 11 12 12 13 13 13 13 13 14 14 15 15 16 16 16 17 18 18 17 16
13 12 14 14 15 15 15 15 16 16 15 15 13 13 14 14 14 14 16 15 16 14 11 10 9 8 8 9 10 11 11 12 12 12 12 13 13 14 14 15 15 15 15 16 16 17 17 17 16
11 12 13 13 14 13 13 12 13 13 13 12 11 11 14 15 14 15 16 16 16 14 12 11 9 7 8 9 9 10 11 11 11 12 12 13 13 13 14 14 14 14 14 15 15 16 16 16 16
11 13 14 14 13 13 12 12 12 12 12 12 11 11 13 14 14 15 16 16 16 14 11 9 6 6 6 7 7 8 9 9 10 11 11 11 12 12 13 13 13 13 13 14 14 14 14 15 15
12 13 14 14 14 13 12 13 13 12 11 10 10 10 11 12 13 14 14 13 14 13 10 8 6 5 5 5 6 7 7 8 9 10 10 10 11 11 12 12 12 12 12 12 13 13 13 13 14
12 12 13 14 14 14 14 13 14 14 13 11 10 10 11 12 13 13 13 12 13 12 10 8 6 5 5 4 5 6 7 7 8 8 9 9 10 10 11 11 11 11 11 11 11 11 12 12 13
12 13 13 14 14 15 15 14 14 14 13 11 9 9 11 11 12 13 13 12 11 11 10 8 7 5 5 4 5 5 6 6 7 7 8 8 9 9 10 11 11 11 11 11 11 11 11 11 12
12 12 13 13 13 15 15 15 14 14 12 10 8 7 8 11 13 13 12 12 12 11 10 9 7 6 5 5 5 5 5 5 6 6 7 8 9 9 10 10 10 10 10 11 11 11 11 11 12
11 11 12 13 14 14 14 14 13 12 10 7 5 5 6 10 13 14 14 14 12 12 11 10 8 7 6 5 4 3 3 4 5 6 7 8 9 9 9 9 9 9 9 10 10 11 11 12 12
11 12 13 14 14 14 15 14 12 10 8 7 5 3 3 8 12 15 15 14 14 13 11 10 8 7 6 4 3 2 3 4 5 6 7 7 7 8 8 8 9 9 10 10 10 11 12 12 13
12 13 13 13 14 14 14 13 12 9 7 5 4 2 1 4 10 13 14 15 15 13 12 10 9 8 6 4 3 2 2 3 4 6 6 7 7 8 8 9 9 10 10 10 11 11 12 12 13
12 13 12 13 14 14 12 11 11 8 5 3 3 1 1 4 9 11 13 13 15 14 12 9 9 7 6 4 3 2 1 2 4 4 5 6 6 7 8 8 9 10 11 11 12 12 13 13 14
12 12 12 12 13 13 12 11 9 8 5 4 3 3 2 5 7 9 9 11 12 12 11 10 10 8 6 5 4 3 2 2 3 3 4 5 6 7 7 8 9 11 12 12 13 13 13 14 14
13 13 13 11 11 11 10 10 8 7 5 4 4 4 3 4 6 7 7 8 9 10 10 11 10 8 6 5 5 3 2 2 3 3 4 5 5 6 8 9 10 11 12 13 14 14 15 15 16
14 14 13 11 9 9 9 8 6 6 5 4 3 3 3 3 5 6 6 7 9 9 9 10 9 8 7 6 5 4 3 3 3 4 4 5 6 7 8 9 11 12 13 14 15 16 16 17 17
14 14 13 11 10 9 9 8 7 7 5 4 3 2 2 2 3 4 6 6 8 8 9 9 8 8 7 6 5 5 4 4 4 5 5 6 7 8 9 10 11 13 14 15 16 18 19 19 19
15 14 14 14 13 10 9 8 8 7 5 5 4 3 1 0 2 3 5 6 6 7 8 8 8 8 8 7 7 6 6 6 6 6 7 7 8 9 11 12 13 14 16 17 18 20 21 22 22
15 14 14 15 13 11 9 8 8 8 7 7 6 5 3 2 2 4 5 6 7 8 8 9 9 9 9 8 8 8 7 7 7 8 9 9 10 11 13 14 15 17 18 19 21 22 23 24 24
15 16 16 16 14 12 10 8 9 9 9 9 8 7 6 6 6 6 7 7 8 9 10 10 10 10 10 10 10 9 9 9 10 10 11 12 13 14 15 17 18 19 20 21 22 23 25 25 25
16 17 18 17 16 15 11 8 10 10 10 10 10 9 8 9 9 9 9 9 10 11 11 11 11 12 12 12 11 11 11 11 12 12 13 14 15 16 18 19 20 21 22 23 24 25 26 26 26
17 18 18 18 17 15 14 10 11 12 12 11 11 11 11 11 11 11 11 11 12 12 12 12 13 13 14 13 13 13 13 14 14 15 16 17 18 19 20 21 21 23 24 25 26 27 28 28 28
Wind_Direction
307 305 304 302 298 291 290 291 293 295 293 283 269 230 196 172 163 166 175 201 219 232 236 236 230 221 212 200 187 176 165 163 317 320 320 320 318 318 321 323 325 326 329 332 332 335 338 343 347
303 299 298 295 292 289 289 292 294 294 294 292 275 246 213 186 173 165 176 198 216 232 237 234 229 227 224 218 214 218 237 262 285 296 303 307 307 307 309 313 316 319 322 323 324 325 326 328 332
303 298 293 289 287 286 287 290 293 296 297 295 286 263 226 194 173 173 183 199 215 229 234 231 227 229 231 234 238 250 264 274 282 290 296 301 303 304 306 308 310 311 313 314 314 315 316 317 318
303 298 293 288 286 286 285 287 290 294 297 298 293 277 242 208 187 180 188 201 213 225 230 228 223 228 237 247 258 265 273 281 287 293 297 299 300 302 303 304 305 305 305 307 306 305 305 305 305
302 297 292 288 286 286 285 286 288 292 298 300 296 285 259 216 196 191 195 205 215 225 228 223 223 228 238 252 267 277 281 283 288 291 294 297 297 298 299 300 300 299 297 298 299 300 300 299 297
302 298 292 289 286 285 284 286 287 290 295 299 297 291 263 224 201 198 199 208 218 223 222 219 223 233 250 265 275 279 282 284 288 291 294 296 296 296 296 297 297 295 293 293 292 293 296 295 292
304 300 293 289 287 285 285 286 285 286 289 293 295 293 285 246 208 204 205 211 215 216 218 223 230 241 255 266 274 281 285 288 291 294 295 296 296 296 295 295 295 293 290 289 289 290 291 289 286
310 303 296 292 290 287 286 285 285 284 287 289 290 286 274 243 222 212 209 209 211 214 220 227 239 250 262 272 279 285 290 292 293 294 295 295 296 296 296 294 294 291 289 286 285 286 285 284 282
318 308 303 300 296 291 287 285 285 286 286 286 283 278 266 249 227 219 211 211 213 217 221 230 243 257 269 279 284 286 288 292 294 296 296 296 298 298 297 294 294 291 290 287 284 284 283 282 280
328 321 319 314 307 298 293 290 289 288 286 283 277 267 257 253 238 223 212 212 213 215 225 237 247 261 272 280 285 287 291 295 296 297 296 298 299 299 298 296 295 293 291 289 288 285 282 281 279
343 339 334 329 321 312 306 302 298 294 292 285 275 263 255 256 243 228 217 214 214 216 226 234 243 259 271 277 283 287 291 294 296 296 296 296 298 298 299 300 298 295 292 290 289 286 281 279 278
351 350 345 340 335 329 323 314 309 306 299 287 277 263 251 247 244 236 223 214 214 217 221 226 233 251 262 270 280 287 291 293 295 296 298 300 302 302 303 303 301 296 294 291 290 289 285 283 279
354 355 351 345 342 339 337 335 330 324 305 290 271 262 249 239 238 231 222 217 213 215 214 213 225 241 256 268 280 288 293 295 296 298 301 303 304 304 305 305 302 299 296 294 291 290 288 285 281
350 352 353 351 347 344 346 344 339 332 320 300 277 262 247 235 233 229 225 220 211 210 209 206 211 229 247 265 285 291 295 299 302 303 305 306 305 305 307 309 308 307 304 302 298 296 291 287 287
351 350 355 357 354 353 349 346 342 337 326 311 286 264 248 237 229 221 222 216 206 205 206 204 212 223 238 258 278 284 294 300 303 306 308 310 311 313 316 316 315 313 312 311 306 302 298 292 286
349 351 354 357 355 353 347 345 341 340 331 317 290 268 256 237 222 218 216 213 204 206 203 202 207 220 235 244 264 280 292 299 305 310 314 318 320 321 320 318 316 314 313 312 311 308 302 298 292
350 354 354 359 358 355 348 343 337 334 329 320 291 270 247 230 218 211 209 209 204 205 205 195 200 217 227 236 253 268 287 302 314 320 324 326 326 325 324 321 319 315 312 310 310 309 304 301 298
351 355 354 354 352 351 349 345 339 338 337 329 303 274 249 221 215 208 205 204 201 202 195 190 194 209 214 221 235 264 290 311 324 329 330 329 330 330 328 325 324 320 318 316 313 310 308 305 303
343 346 349 349 346 347 348 347 345 347 343 336 324 288 252 227 209 204 203 199 194 187 191 186 188 198 201 202 218 254 288 312 324 329 330 332 335 335 334 333 331 329 327 325 323 319 315 311 308
330 335 343 346 343 343 347 348 345 347 345 339 346 326 231 211 197 195 194 192 191 190 187 182 189 191 186 185 204 241 284 312 322 327 332 341 343 342 342 343 343 340 337 333 329 325 320 317 313
331 331 335 341 340 342 345 344 345 348 350 352 8 27 169 176 176 179 185 189 189 188 188 189 189 183 180 180 190 215 262 310 324 331 339 346 348 350 353 354 353 350 346 343 339 335 328 321 317
329 328 329 334 336 339 343 344 344 346 356 7 19 44 115 154 163 174 178 184 188 188 191 193 183 182 184 188 198 213 247 302 320 330 341 351 357 360 1 358 355 352 350 349 346 340 335 329 323
325 325 324 326 332 334 339 343 344 348 354 10 27 46 99 153 164 174 184 188 190 186 186 185 184 185 192 199 207 215 244 284 305 325 342 354 360 1 360 358 355 352 350 348 346 342 337 331 325
321 322 321 320 322 326 332 338 338 337 343 356 25 50 89 146 165 174 182 184 189 187 188 189 191 193 203 211 216 228 249 272 296 317 332 344 348 348 348 348 348 348 347 345 343 341 338 332 327
313 316 318 316 316 318 318 320 319 319 329 332 340 8 48 134 174 182 183 183 185 192 195 196 195 202 211 220 230 241 255 269 288 302 312 322 329 330 331 333 336 338 339 339 339 338 335 332 328
308 310 314 315 315 311 310 312 304 303 305 312 312 309 319 177 182 197 200 196 196 201 202 201 206 214 221 229 239 248 258 268 279 290 299 307 313 317 319 322 325 328 329 330 331 330 329 327 326
303 307 310 309 309 308 301 303 301 289 286 290 295 285 273 261 233 222 219 212 209 208 210 214 219 224 229 237 245 252 259 268 275 283 292 299 304 308 312 316 319 321 322 322 323 323 323 322 323
298 305 307 305 302 302 299 288 288 282 285 283 282 275 264 264 253 240 231 226 224 224 223 224 228 231 236 243 249 255 261 269 277 284 290 295 300 303 306 311 314 316 316 317 318 319 320 320 319
298 302 303 300 297 296 291 284 277 276 277 280 276 272 265 263 262 254 247 241 238 237 234 233 235 237 241 246 252 258 266 273 279 285 289 293 296 299 302 306 309 311 313 314 315 317 319 319 318
296 299 300 296 294 291 284 279 272 270 267 271 273 270 267 265 262 258 252 246 243 242 240 240 240 242 245 250 255 262 269 274 279 284 288 291 294 298 301 304 306 308 311 313 314 316 316 316 316
Height
5896 5896 5895 5895 5894 5892 5889 5889 5888 5887 5886 5886 5885 5885 5885 5885 5887 5890 5890 5890 5892 5893 5894 5894 5894 5894 5894 5894 5894 5894 5895 5895 5896 5896 5896 5897 5897 5897 5897 5897 5897 5897 5897 5897 5897 5896 5896 5896 5896
5895 5894 5894 5893 5892 5890 5888 5887 5886 5885 5885 5884 5883 5883 5883 5883 5884 5886 5888 5889 5891 5892 5893 5893 5893 5893 5893 5893 5894 5894 5894 5895 5895 5895 5895 5895 5895 5896 5896 5896 5896 5896 5896 5896 5896 5896 5896 5895 5895
5892 5892 5892 5891 5889 5888 5887 5885 5884 5883 5883 5882 5881 5881 5880 5881 5882 5884 5887 5888 5890 5891 5892 5892 5892 5892 5893 5893 5893 5893 5894 5894 5894 5894 5894 5894 5894 5894 5895 5894 5894 5894 5894 5894 5894 5894 5894 5894 5894
5890 5889 5889 5888 5886 5885 5884 5883 5882 5882 5881 5881 5880 5880 5879 5879 5881 5883 5885 5886 5888 5889 5890 5891 5891 5892 5892 5892 5893 5893 5893 5893 5893 5893 5893 5893 5893 5893 5893 5893 5893 5892 5892 5892 5893 5893 5893 5893 5893
5887 5886 5885 5884 5883 5882 5881 5881 5881 5880 5880 5879 5878 5878 5878 5878 5880 5882 5884 5885 5886 5888 5889 5889 5890 5890 5891 5891 5891 5892 5892 5892 5892 5892 5892 5892 5892 5891 5891 5891 5890 5890 5890 5890 5890 5891 5891 5891 5891
5884 5883 5882 5880 5879 5878 5878 5878 5878 5878 5878 5877 5877 5876 5876 5877 5879 5881 5882 5884 5885 5887 5887 5888 5889 5889 5890 5890 5890 5891 5891 5891 5891 5891 5891 5890 5890 5890 5889 5888 5888 5888 5888 5888 5888 5888 5889 5889 5889
5882 5880 5878 5876 5875 5874 5874 5874 5875 5875 5875 5875 5875 5875 5875 5876 5877 5879 5881 5882 5884 5885 5886 5887 5887 5888 5888 5888 5889 5889 5889 5889 5889 5889 5889 5888 5888 5887 5887 5886 5886 5885 5885 5885 5885 5885 5886 5886 5886
5879 5878 5874 5873 5872 5871 5871 5871 5871 5871 5872 5872 5873 5873 5873 5874 5876 5877 5879 5881 5882 5883 5884 5885 5885 5886 5886 5886 5887 5887 5887 5887 5887 5886 5886 5886 5885 5885 5884 5883 5883 5882 5882 5882 5882 5882 5882 5883 5883
5876 5875 5872 5870 5869 5868 5867 5867 5867 5867 5868 5868 5869 5870 5870 5871 5873 5875 5877 5878 5880 5881 5882 5882 5883 5884 5884 5885 5885 5885 5884 5884 5884 5884 5884 5884 5883 5882 5882 5881 5880 5880 5879 5879 5879 5879 5879 5879 5880
5874 5873 5871 5869 5867 5865 5864 5863 5863 5863 5863 5864 5864 5865 5866 5868 5869 5871 5874 5875 5877 5878 5879 5880 5881 5881 5882 5882 5882 5882 5882 5882 5882 5881 5881 5881 5881 5880 5879 5878 5878 5877 5877 5876 5876 5875 5875 5876 5877
5873 5871 5869 5867 5865 5863 5861 5860 5859 5859 5859 5859 5860 5861 5862 5864 5866 5868 5870 5872 5874 5875 5876 5878 5878 5879 5879 5879 5879 5879 5880 5880 5880 5879 5879 5879 5878 5878 5877 5876 5875 5875 5874 5873 5873 5872 5872 5872 5873
5872 5870 5868 5866 5863 5861 5859 5858 5856 5855 5856 5855 5856 5857 5858 5860 5862 5865 5866 5868 5871 5873 5874 5875 5875 5876 5876 5877 5877 5877 5877 5878 5877 5877 5877 5876 5876 5875 5874 5873 5873 5872 5871 5871 5870 5870 5869 5869 5870
5872 5870 5867 5865 5862 5860 5858 5856 5854 5853 5852 5852 5853 5853 5854 5856 5858 5860 5863 5865 5867 5870 5871 5872 5873 5873 5874 5874 5875 5875 5875 5875 5875 5875 5875 5874 5874 5873 5872 5871 5870 5870 5869 5868 5867 5867 5867 5867 5867
5871 5869 5867 5864 5861 5859 5857 5855 5853 5851 5850 5849 5850 5851 5851 5853 5855 5858 5860 5862 5865 5867 5869 5870 5870 5871 5872 5872 5873 5873 5873 5873 5873 5873 5873 5872 5872 5871 5870 5869 5868 5867 5866 5866 5865 5864 5864 5864 5865
5871 5869 5867 5863 5860 5858 5856 5854 5852 5849 5847 5846 5846 5847 5848 5850 5852 5855 5857 5859 5862 5864 5866 5867 5868 5869 5870 5871 5871 5871 5872 5872 5872 5872 5871 5870 5870 5869 5868 5867 5866 5865 5864 5864 5863 5862 5862 5862 5862
5871 5869 5866 5863 5860 5857 5856 5853 5851 5848 5845 5843 5843 5844 5845 5847 5849 5851 5854 5857 5859 5861 5863 5865 5867 5868 5869 5870 5870 5870 5871 5871 5871 5870 5870 5869 5868 5867 5866 5866 5865 5863 5863 5862 5861 5861 5860 5860 5860
5871 5869 5866 5863 5860 5857 5855 5852 5849 5846 5844 5842 5841 5841 5842 5843 5846 5848 5851 5853 5856 5858 5861 5863 5865 5867 5868 5869 5869 5869 5869 5869 5869 5869 5868 5867 5867 5866 5865 5864 5863 5862 5861 5860 5860 5859 5858 5858 5857
5872 5869 5866 5863 5860 5857 5854 5851 5847 5845 5843 5840 5840 5839 5840 5841 5843 5845 5848 5851 5853 5855 5858 5862 5864 5866 5867 5867 5868 5868 5868 5868 5868 5867 5867 5866 5866 5865 5864 5863 5862 5861 5860 5859 5858 5857 5856 5856 5855
5871 5869 5866 5863 5860 5857 5853 5850 5847 5845 5843 5841 5840 5839 5838 5839 5840 5842 5845 5848 5851 5854 5857 5860 5862 5864 5865 5866 5866 5866 5867 5867 5867 5866 5866 5865 5865 5864 5863 5862 5861 5860 5859 5858 5856 5855 5854 5854 5853
5871 5868 5866 5863 5860 5857 5854 5851 5847 5845 5843 5841 5839 5838 5838 5837 5838 5840 5843 5846 5849 5852 5856 5858 5861 5862 5863 5864 5865 5865 5865 5866 5866 5865 5865 5864 5864 5863 5862 5861 5860 5859 5857 5856 5855 5854 5853 5852 5851
5869 5867 5865 5862 5860 5857 5854 5852 5849 5846 5844 5842 5840 5839 5838 5837 5838 5840 5843 5845 5848 5851 5854 5857 5860 5861 5862 5863 5864 5864 5864 5865 5865 5865 5864 5863 5863 5862 5861 5860 5859 5857 5856 5855 5853 5852 5851 5849 5848
5868 5866 5864 5862 5859 5857 5855 5852 5850 5847 5846 5844 5842 5840 5839 5839 5840 5841 5843 5845 5847 5850 5853 5856 5858 5860 5861 5862 5863 5863 5864 5864 5864 5864 5863 5863 5862 5861 5860 5859 5858 5856 5855 5853 5852 5850 5849 5847 5846
5866 5864 5863 5861 5859 5857 5855 5853 5851 5848 5847 5846 5844 5842 5841 5842 5842 5843 5844 5846 5847 5849 5852 5854 5856 5858 5860 5861 5861 5862 5862 5863 5863 5862 5862 5861 5861 5860 5859 5858 5856 5855 5853 5852 5850 5848 5847 5845 5843
5864 5863 5861 5860 5859 5857 5855 5853 5852 5850 5849 5847 5846 5845 5843 5843 5844 5844 5845 5846 5847 5849 5852 5853 5854 5856 5858 5859 5860 5861 5861 5861 5861 5861 5860 5860 5859 5858 5857 5856 5855 5853 5852 5850 5848 5846 5844 5842 5840
5863 5861 5860 5858 5857 5856 5855 5853 5852 5850 5849 5848 5847 5846 5845 5845 5845 5845 5846 5846 5848 5849 5851 5852 5854 5855 5857 5858 5858 5859 5859 5859 5859 5859 5859 5858 5857 5856 5856 5854 5853 5851 5849 5847 5845 5843 5841 5839 5837
5860 5859 5858 5857 5855 5855 5854 5853 5852 5850 5849 5848 5848 5847 5846 5845 5845 5846 5846 5847 5848 5849 5850 5851 5852 5854 5855 5856 5857 5857 5857 5857 5857 5857 5857 5856 5855 5854 5853 5851 5850 5848 5846 5844 5842 5840 5838 5835 5833
5858 5856 5856 5855 5853 5853 5852 5852 5851 5850 5849 5848 5848 5847 5846 5846 5846 5846 5846 5847 5847 5848 5849 5850 5851 5852 5853 5854 5854 5855 5855 5855 5855 5855 5854 5853 5852 5851 5850 5848 5846 5845 5843 5841 5838 5836 5834 5831 5828
5855 5854 5853 5852 5850 5850 5850 5850 5850 5849 5848 5848 5847 5846 5846 5845 5845 5845 5846 5846 5846 5847 5847 5848 5849 5850 5851 5851 5852 5852 5852 5852 5852 5851 5851 5850 5849 5847 5846 5844 5843 5841 5839 5836 5834 5831 5829 5826 5823
5852 5851 5849 5848 5848 5847 5847 5850 5848 5847 5846 5846 5846 5845 5845 5844 5844 5844 5844 5844 5844 5845 5845 5845 5846 5847 5848 5848 5849 5849 5849 5848 5848 5847 5847 5846 5845 5843 5842 5840 5838 5836 5834 5831 5829 5826 5823 5821 5818
5848 5847 5846 5846 5845 5844 5844 5848 5845 5845 5844 5844 5844 5843 5843 5843 5842 5842 5842 5842 5842 5842 5842 5843 5843 5844 5844 5845 5845 5845 5845 5844 5844 5843 5842 5841 5840 5839 5837 5835 5833 5831 5829 5826 5823 5821 5818 5815 5811